www.pogodaiklimat.ru

Погода и климат >> Архив погоды >> Антарктида >> Davis


АРХИВ ПОГОДЫ на Davis

Время (UTC), дата Ветер
(напр.,м/с)
 
Видим.   Явления Облачность Т
(С)
Тd
(С)
f
(%)
Тe
(С)
Тes
(С)
Комфортность P
(гПа)
Po
(гПа)
Тmin
(С)
Tmax
(С)
R
(мм)
R24
(мм)
S
(см)
18 12.06 Ю 5 н/о н/о -24.1 -29.6 60 -35 -35 опасность
обморожения
987.5 984.4
21 12.06 ЮВ 4 н/о н/о -23.9 -28.4 66 -33 -33 опасность
обморожения
985.8 982.8
00 13.06 В 5 30 км ясно -24.0 -28.5 66 -35 -35 опасность
обморожения
984.7 981.7
03 13.06 В 5 30 км 1/0
[Ac trans Ci sp]
-23.7 -29.1 61 -34 -34 опасность
обморожения
982.5 979.5 -25.0 0.0
06 13.06 ЮВ 4 30 км 5/0
[Cs]
-23.0 -28.1 63 -33 -33 опасность
обморожения
980.6 977.6
09 13.06 ЮВ 6 30 км 8/0
[Cs]
-21.6 -26.1 67 -33 -33 опасность
обморожения
978.6 975.6
12 13.06 ЮВ 5 30 км 8/0
[Cs]
-21.1 -26.1 64 -32 -32 опасность
обморожения
976.7 973.7
15 13.06 В 6 н/о н/о -20.7 -25.2 67 -32 -32 опасность
обморожения
974.6 971.6 -20.8
18 13.06 ЮВ 5 н/о н/о -20.0 -25.5 61 -30 -30 холодно 973.8 970.8
21 13.06 В 6 н/о н/о -19.9 -25.8 59 -30 -30 холодно 972.9 969.9
00 14.06 ЮВ 5 30 км 10/0
[Cs]
-20.3 -26.8 56 -30 -30 холодно 973.1 970.1
03 14.06 В 6 30 км 10/0
[Cs]
-19.9 -26.8 54 -30 -30 холодно 973.5 970.5 -24.2
06 14.06 В 6 30 км 10/0
[Cs]
-20.3 -27.2 54 -31 -31 опасность
обморожения
974.1 971.1
09 14.06 ЮВ 4 30 км 10/0
[Cs]
-19.9 -26.8 54 -29 -29 холодно 975.1 972.1
12 14.06 В 4 30 км 10/0
[Cs]
-19.4 -26.7 52 -28 -28 прохладно 976.1 973.1
15 14.06 В 4 н/о н/о -20.2 -26.9 55 -29 -29 холодно 977.1 974.1 -19.2
18 14.06 В 4 н/о н/о -19.8 -26.7 54 -28 -28 прохладно 978.5 975.5
21 14.06 В 3 н/о н/о -19.9 -26.6 55 -28 -28 прохладно 980.4 977.4
00 15.06 В 4 30 км 9/1 1000 м
[St As trans]
-20.0 -26.1 58 -29 -29 холодно 982.1 979.1
03 15.06 В 4 30 км 3/0
[As trans]
-20.6 -26.9 57 -30 -30 холодно 983.5 980.5 -20.9
06 15.06 В 5 30 км 1/1 1000 м
[Sc As trans]
-21.8 -27.6 59 -32 -32 опасность
обморожения
984.8 981.8
09 15.06 В 5 30 км осадки на расстоянии 1/1 1000 м
[Cu med, cong As trans]
-22.3 -28.3 58 -33 -33 опасность
обморожения
986.2 983.2
12 15.06 В 2 30 км 1/1 1000 м
[Cu hum As trans]
-22.4 -29.1 54 -27 -27 прохладно 988.1 985.0
15 15.06 В 4 н/о н/о -23.7 -29.2 60 -33 -33 опасность
обморожения
988.8 985.7 -18.9
18 15.06 ЮВ 3 н/о н/о -22.7 -29.4 54 -31 -31 опасность
обморожения
989.6 986.5
21 15.06 ЮВ 3 н/о н/о -22.7 -29.4 54 -30 -30 холодно 990.0 986.9
00 16.06 ЮВ 7 30 км 3/0
[Ci sp]
-20.9 -28.8 49 -33 -33 опасность
обморожения
989.5 986.4
03 16.06 ЮВ 7 30 км 1/0
[Ci sp]
-21.1 -28.3 52 -33 -33 опасность
обморожения
989.6 986.5 -24.2
06 16.06 В 6 30 км 3/0
[Cs]
-21.8 -27.4 60 -33 -33 опасность
обморожения
989.4 986.3
09 16.06 ЮВ 5 30 км 3/0
[Cs]
-21.8 -27.1 62 -32 -32 опасность
обморожения
989.5 986.4
12 16.06 В 3 30 км 3/0
[Cs]
-21.2 -27.2 58 -29 -29 холодно 989.9 986.8
15 16.06 ЮВ 3 н/о н/о -21.3 -27.3 58 -28 -28 прохладно 990.8 987.7 -20.4
18 16.06 ЮВ 4 н/о н/о -20.7 -27.1 56 -30 -30 холодно 991.5 988.4
21 16.06 ЮВ 4 н/о н/о -21.1 -27.5 56 -30 -30 холодно 991.7 988.6
00 17.06 С 1 30 км 1/0
[Cs]
-22.9 -28.1 62 -26 -26 по сезону 991.3 988.2
03 17.06 ЮВ 6 30 км 1/0
[Cs]
-21.3 -27.5 57 -32 -32 опасность
обморожения
990.6 987.5 -23.6
06 17.06 ЮВ 2 30 км 3/0
[Cs]
-22.7 -27.9 62 -29 -29 холодно 989.8 986.7
09 17.06 В 4 30 км 4/0
[Cs]
-21.3 -27.1 59 -30 -30 холодно 988.1 985.0
12 17.06 В 2 30 км 6/0
[Cs]
-21.0 -26.7 60 -27 -27 прохладно 986.6 983.6
15 17.06 В 6 н/о н/о -18.8 -25.5 55 -29 -29 холодно 985.5 982.5 -19.1
18 17.06 В 5 н/о н/о -18.6 -25.0 57 -28 -28 прохладно 984.0 981.0
21 17.06 В 6 н/о н/о -19.1 -25.8 55 -29 -29 холодно 983.2 980.2
00 18.06 ЮВ 6 30 км 8/0
[Cs]
-18.4 -25.2 55 -29 -29 холодно 982.7 979.7
03 18.06 ЮВ 5 30 км 8/0
[Cs]
-19.3 -25.8 56 -29 -29 холодно 981.6 978.6 -24.8
06 18.06 В 6 30 км 8/1 600 м
[Sc Ac trans Cs]
-19.6 -26.3 55 -30 -30 холодно 980.0 977.0
09 18.06 ЮВ 4 30 км 5/1 600 м
[Sc Cs]
-18.6 -25.8 53 -27 -27 прохладно 979.1 976.1
12 18.06 В 4 30 км 6/0
[Cs]
-19.3 -25.8 56 -28 -28 прохладно 978.8 975.8
15 18.06 В 4 н/о н/о -19.9 -26.2 57 -28 -28 прохладно 978.9 975.9 -17.6
18 18.06 В 4 н/о н/о -20.0 -25.7 60 -28 -28 прохладно 979.3 976.3
21 18.06 В 5 н/о н/о -21.1 -25.6 67 -31 -31 опасность
обморожения
979.7 976.7
00 19.06 В 3 25 км туман на расстоянии 3/0
[Ci sp]
-20.7 -24.7 70 -28 -28 прохладно 981.0 978.0
03 19.06 СВ 2 25 км 4/1 100 м
[St Ci sp]
-22.4 -26.3 70 -29 -29 холодно 982.1 979.1 -23.4
06 19.06 СВ 3 900 м переохл. туман 9/9 50 м
[St]
-22.0 -23.7 86 -30 -30 холодно 984.0 981.0
09 19.06 СВ 3 200 м переохл. туман 9/9 100 м
[St]
-21.4 -23.4 84 -29 -29 прохладно 985.6 982.6
12 19.06 З 4 25 км {туман} 9/9 300 м
[St]
-21.1 -23.3 82 -30 -30 холодно 987.8 984.7
15 19.06 З 3 н/о н/о -22.9 -25.5 79 -31 -31 опасность
обморожения
988.7 985.6 -19.0

 

Местоположение метеостанции Davis (Антарктида): широта -68.58 долгота 77.95 высота над уровнем моря 13 м.

В архиве по умолчанию представлена погода на Davis за последнюю неделю. Архивные данные за месяц целиком и за предыдущие месяцы, начиная с января 2011 года, Вы можете получить, выбрав интересующий диапазон дат из раскрывающегося списка и нажав кнопку "Ввод!".


*Определитесь, кто Вы:
робот инопланетянин человек

Внимание! Время в таблицах - всемирное. Для получения местного времени необходимо прибавить поправку, которая равна 0 ч.

Смотрите также архив погоды в соседних городах и на ближайших метеорологических станциях:

Погода на Davis (Whoop Whoop) (Антарктида) (37 км)
Погода на Дэвисе (Антарктида) (108 км)
Погода на Прогрессе (Антарктида) (109 км)
Погода на Бхарати (Антарктида) (116 км)
Погода на Дружной-4 (Антарктида) (211 км)
Погода на Леднике Эймери (Антарктида) (404 км)
Погода на Моусоне (Антарктида) (634 км)
Погода в Мирном (Антарктида) (676 км)
Погода на Dome Plateau Eagle (Антарктида) (871 км)
Погода на Davis АМС (Антарктида) (1310 км)

Пояснения к столбцам:

Ветер - указаны скорость ветра в м/с - средняя за 10 мин, порывы в срок и между сроками (в фигурных скобках) и направление, откуда дует ветер: С - северный, СВ - северо-восточный, В - восточный, ЮВ - юго-восточный, Ю - южный, ЮЗ - юго-западный, З - западный, СЗ - северо-западный.
Видимость - горизонтальная дальность видимости в метрах или километрах. При видимости от 1 до 10 км при отсутствии осадков обычно наблюдается дымка, при ухудшении видимости до 1 км и менее - туман. В сухую погоду видимость может ухудшаться дымом, пылью или мглою.
Явления - указаны атмосферные явления, наблюдавшиеся в срок или в последний час перед сроком; фигурными скобками обозначены явления, наблюдавшиеся между сроками (за 1-3 часа до срока); квадратными скобками обозначены град или гололедные отложения с указанием их диаметра в мм.
Облачность - указаны через наклонную черту общая и нижняя облачность в баллах и высота нижней границы облаков в метрах; квадратными скобками обозначены формы облаков: Ci - перистые, Cs - перисто-слоистые, Cc - перисто-кучевые, Ac - высококучевые, As - высокослоистые, Sc - слоисто-кучевые, Ns - слоисто-дождевые, Cu - кучевые, Cb - кучево-дождевые. Подробнее классификацию облаков см. в Атласе облаков (PDF).
T - Температура воздуха - температура, измеренная на высоте 2 м над землей.
Td - Температура точки росы - температура, при понижении до которой содержащийся в воздухе водяной пар достигнет насыщения.
f - Относительная влажность воздуха - влажноcть воздуха, измеренная на высоте 2 м над землей.
Te - Эффективная температура - температура, которую ощущает одетый по сезону человек в тени. Характеристика душности погоды. При расчете учитывается влияние влажности воздуха и скорости ветра на теплоощущения человека.
Tes - Эффективная температура на солнце - температура, которую ощущает человек, с поправкой на солнечный нагрев. Характеристика знойности погоды. Зависит от высоты солнца над горизонтом, облачности и скорости ветра. Ночью, в пасмурную погоду, а также при ветре 12 м/с и более поправка равна нулю.
P - Атмосферное давление - приведенное к уровню моря атмосферное давление.
Po - Атмосферное давление - измеренное на уровне метеостанции атмосферное давление.
Tmin - Минимальная температура - минимум температуры воздуха на высоте 2 м над землей.
Tmax - Максимальная температура - максимум температуры воздуха на высоте 2 м над землей.
R - Количество осадков - Количество выпавших осадков за период времени, мм. При наведении курсора мыши на число - период времени, за который выпало указанное количество осадков.
R24 - Количество осадков - Количество выпавших осадков за 24 часа, мм.
S - Снежный покров - Высота снежного покрова, см. При наведении курсора мыши на число - состояние снежного покрова и степень покрытия местности в баллах.